Regional Weather Roundup
Issued by NWS

Home | Current Version | Previous Version | Graphics & Text | Print | Product List | Glossary On
Versions: 1 2 3 4 5 6 7 8 9 10 11 12 13 14 15 16 17 18 19 20 21 22 23 24 25 26 27 28 29 30 31 32 33 34 35 36 37 38 39 40 41 42 43 44 45 46 47 48 49 50
000
ASUS43 KBIS 040701
RWRND

NORTH DAKOTA REGIONAL WEATHER ROUNDUP
NATIONAL WEATHER SERVICE BISMARCK ND
200 AM CDT MON MAY 04 2015

NOTE: "FAIR" INDICATES FEW OR NO CLOUDS BELOW 12,000 FEET WITH NO
SIGNIFICANT WEATHER AND/OR OBSTRUCTIONS TO VISIBILITY.


NDZ001>003-009>011-017-040800-
NORTHWEST NORTH DAKOTA

CITY           SKY/WX    TMP DP  RH WIND       PRES   REMARKS
WILLISTON      CLEAR     35  23  61 N5        30.13R
MINOT          CLEAR     39  25  57 SW7       30.12R
MINOT AFB      CLEAR     34  27  76 W3        30.12R
$$

NDZ018>021-031>035-040>046-040800-
SOUTHWEST NORTH DAKOTA

CITY           SKY/WX    TMP DP  RH WIND       PRES   REMARKS
BISMARCK       PTCLDY    43  27  53 NE9       30.12S
DICKINSON      PTCLDY    38  26  62 S5        30.11R
GARRISON         N/A     38  26  62 NW6       30.13R
HETTINGER ARPT MOCLDY    35  25  66 CALM      30.13R
$$

NDZ004>008-012>016-024-026-027-054-040800-
NORTHEAST NORTH DAKOTA

CITY           SKY/WX    TMP DP  RH WIND       PRES   REMARKS
GRAND FORKS    CLEAR     39  29  67 NW7       30.08R
GRND FRKS AFB  CLEAR     40  27  59 N5        30.08R
DEVILS LAKE    CLEAR     41  28  60 N5        30.10R
$$

NDZ022-023-025-028>030-036>039-047>053-040800-
SOUTHEAST NORTH DAKOTA

CITY           SKY/WX    TMP DP  RH WIND       PRES   REMARKS
FARGO          CLEAR     43  26  51 NW9       30.07R
JAMESTOWN      CLEAR     38  25  59 NW6       30.09R
$$



USA.gov is the U.S. government's official web portal to all federal, state and local government web resources and services.